When you browse on this site, cookies collect data to enhance your experience and personalize the content and advertising you see.
Visit our Privacy Policy to learn more. By continuing to use the site, you agree to this use of cookies and data.
  • In Romania
  • List of Countries
  • For 7 days
  • Water Temperature
  • Weather Map
  • Weather Widgets
  • user-avatar
    Login

    Hourly Weather Polotsk

    Today, 22 January, Wednesday

    Time Temperature Precipitation Wind Pressure Humidity
    00:00 +2°C° 0 mm 5 mps 745 mmHg 75%
    01:00 +1°C° 0 mm 5 mps 745 mmHg 75%
    02:00 +1°C° 0 mm 4 mps 745 mmHg 76%
    03:00 +1°C° 0.4 mm 5 mps 743 mmHg 80%
    04:00 +2°C° 0.4 mm 6 mps 742 mmHg 84%
    05:00 +2°C° 0.4 mm 6 mps 741 mmHg 88%
    06:00 +2°C° 0.1 mm 6 mps 741 mmHg 84%
    07:00 +1°C° 0.1 mm 5 mps 740 mmHg 80%
    08:00 +1°C° 0.1 mm 5 mps 740 mmHg 76%
    09:00 +1°C° 0.1 mm 5 mps 739 mmHg 79%
    10:00 +1°C° 0.1 mm 6 mps 739 mmHg 82%
    11:00 0°C° 0.1 mm 7 mps 739 mmHg 84%
    12:00 -1°C° 0.3 mm 7 mps 739 mmHg 78%
    13:00 -1°C° 0.3 mm 7 mps 740 mmHg 71%
    14:00 -1°C° 0.3 mm 8 mps 740 mmHg 64%
    15:00 -1°C° 0.1 mm 7 mps 740 mmHg 65%
    16:00 -2°C° 0.1 mm 6 mps 741 mmHg 65%
    17:00 -2°C° 0.1 mm 5 mps 741 mmHg 66%
    18:00 -2°C° 0 mm 5 mps 742 mmHg 69%
    19:00 -3°C° 0 mm 6 mps 743 mmHg 72%
    20:00 -3°C° 0 mm 6 mps 743 mmHg 75%
    21:00 -3°C° 0 mm 6 mps 744 mmHg 75%
    22:00 -3°C° 0 mm 6 mps 744 mmHg 76%
    23:00 -3°C° 0 mm 6 mps 744 mmHg 76%

    Tomorrow, 23 January, Thursday

    Time Temperature Precipitation Wind Pressure Humidity
    00:00 -4°C° 0 mm 6 mps 745 mmHg 71%
    01:00 -4°C° 0 mm 7 mps 746 mmHg 67%
    02:00 -4°C° 0 mm 7 mps 747 mmHg 62%
    03:00 -4°C° 0 mm 6 mps 748 mmHg 62%
    04:00 -4°C° 0 mm 6 mps 748 mmHg 61%
    05:00 -5°C° 0 mm 5 mps 748 mmHg 61%
    06:00 -5°C° 0 mm 5 mps 749 mmHg 62%
    07:00 -5°C° 0 mm 5 mps 749 mmHg 63%
    08:00 -4°C° 0 mm 4 mps 750 mmHg 64%
    09:00 -4°C° 0 mm 5 mps 750 mmHg 65%
    10:00 -4°C° 0 mm 5 mps 751 mmHg 65%
    11:00 -2°C° 0 mm 5 mps 751 mmHg 66%
    12:00 -2°C° 0 mm 5 mps 751 mmHg 65%
    13:00 -1°C° 0 mm 5 mps 751 mmHg 64%
    14:00 -1°C° 0 mm 5 mps 751 mmHg 63%
    15:00 -1°C° 0 mm 5 mps 751 mmHg 67%
    16:00 -2°C° 0 mm 4 mps 751 mmHg 71%
    17:00 -2°C° 0 mm 4 mps 750 mmHg 75%
    18:00 -2°C° 0 mm 4 mps 750 mmHg 78%
    19:00 -2°C° 0 mm 4 mps 750 mmHg 80%
    20:00 -2°C° 0 mm 5 mps 750 mmHg 83%
    21:00 -2°C° 0 mm 4 mps 750 mmHg 84%
    22:00 -2°C° 0 mm 4 mps 749 mmHg 84%
    23:00 -2°C° 0 mm 4 mps 749 mmHg 85%

    Day after tomorrow, 24 January, Friday

    Time Temperature Precipitation Wind Pressure Humidity
    00:00 -2°C° 0 mm 5 mps 748 mmHg 84%
    01:00 -2°C° 0 mm 5 mps 748 mmHg 84%
    02:00 -2°C° 0 mm 5 mps 747 mmHg 84%
    03:00 -2°C° 0.1 mm 5 mps 746 mmHg 84%
    04:00 -2°C° 0.1 mm 6 mps 746 mmHg 85%
    05:00 -2°C° 0.1 mm 6 mps 745 mmHg 85%
    06:00 -1°C° 0.1 mm 6 mps 744 mmHg 87%
    07:00 +1°C° 0.1 mm 6 mps 744 mmHg 89%
    08:00 +2°C° 0.1 mm 6 mps 744 mmHg 91%
    09:00 +2°C° 0 mm 6 mps 744 mmHg 91%
    10:00 +2°C° 0 mm 6 mps 743 mmHg 90%
    11:00 +2°C° 0 mm 6 mps 743 mmHg 90%
    12:00 +2°C° 0 mm 6 mps 743 mmHg 89%
    13:00 +3°C° 0 mm 6 mps 743 mmHg 89%
    14:00 +3°C° 0 mm 6 mps 743 mmHg 88%
    15:00 +2°C° 0 mm 6 mps 743 mmHg 89%
    16:00 +2°C° 0 mm 5 mps 743 mmHg 89%
    17:00 +2°C° 0 mm 5 mps 742 mmHg 90%
    18:00 +2°C° 0.2 mm 5 mps 742 mmHg 90%
    19:00 +2°C° 0.2 mm 5 mps 742 mmHg 91%
    20:00 +2°C° 0.2 mm 5 mps 742 mmHg 92%
    21:00 +2°C° 0.4 mm 5 mps 742 mmHg 92%
    22:00 +2°C° 0.4 mm 6 mps 742 mmHg 92%
    23:00 +2°C° 0.4 mm 6 mps 741 mmHg 92%

    25 January, Saturday

    Time Temperature Precipitation Wind Pressure Humidity
    00:00 +2°C° 0.3 mm 6 mps 741 mmHg 91%
    01:00 +3°C° 0.3 mm 6 mps 741 mmHg 91%
    02:00 +3°C° 0.3 mm 6 mps 741 mmHg 90%
    03:00 +3°C° 0.1 mm 5 mps 740 mmHg 89%
    04:00 +3°C° 0.1 mm 5 mps 740 mmHg 88%
    05:00 +2°C° 0.1 mm 5 mps 740 mmHg 87%
    06:00 +2°C° 0.1 mm 5 mps 740 mmHg 86%
    07:00 +2°C° 0.1 mm 5 mps 740 mmHg 84%
    08:00 +1°C° 0.1 mm 6 mps 740 mmHg 83%
    09:00 +1°C° 0 mm 6 mps 741 mmHg 80%
    10:00 +2°C° 0 mm 6 mps 741 mmHg 78%
    11:00 +2°C° 0 mm 6 mps 742 mmHg 75%
    12:00 +2°C° 0 mm 6 mps 742 mmHg 73%
    13:00 +2°C° 0 mm 7 mps 742 mmHg 70%
    14:00 +2°C° 0 mm 7 mps 742 mmHg 68%
    15:00 0°C° 0 mm 7 mps 742 mmHg 71%
    16:00 0°C° 0 mm 7 mps 742 mmHg 74%
    17:00 -1°C° 0 mm 6 mps 743 mmHg 77%
    18:00 -1°C° 0 mm 6 mps 743 mmHg 78%
    19:00 -1°C° 0 mm 6 mps 743 mmHg 79%
    20:00 -1°C° 0 mm 6 mps 744 mmHg 80%
    21:00 -1°C° 0 mm 5 mps 745 mmHg 82%
    22:00 -1°C° 0 mm 5 mps 745 mmHg 84%
    23:00 -2°C° 0 mm 4 mps 746 mmHg 86%

    26 January, Sunday

    Time Temperature Precipitation Wind Pressure Humidity
    00:00 -2°C° 0 mm 4 mps 746 mmHg 86%
    01:00 -1°C° 0 mm 3 mps 747 mmHg 87%
    02:00 -2°C° 0 mm 3 mps 748 mmHg 88%
    03:00 -2°C° 0 mm 3 mps 748 mmHg 89%
    04:00 -2°C° 0 mm 3 mps 748 mmHg 89%
    05:00 -2°C° 0 mm 3 mps 748 mmHg 90%
    06:00 -2°C° 0 mm 3 mps 749 mmHg 90%
    07:00 -2°C° 0 mm 2 mps 749 mmHg 90%
    08:00 -2°C° 0 mm 2 mps 750 mmHg 90%
    09:00 -1°C° 0 mm 2 mps 750 mmHg 86%
    10:00 +1°C° 0 mm 2 mps 750 mmHg 82%
    11:00 0°C° 0 mm 3 mps 750 mmHg 78%
    12:00 +1°C° 0 mm 3 mps 750 mmHg 80%
    13:00 +1°C° 0 mm 3 mps 750 mmHg 82%
    14:00 +1°C° 0 mm 3 mps 750 mmHg 83%
    15:00 +1°C° 0 mm 3 mps 750 mmHg 83%
    16:00 +1°C° 0 mm 3 mps 750 mmHg 83%
    17:00 +1°C° 0 mm 3 mps 750 mmHg 83%
    18:00 +1°C° 0 mm 3 mps 750 mmHg 83%
    19:00 +1°C° 0 mm 3 mps 750 mmHg 82%
    20:00 +1°C° 0 mm 3 mps 750 mmHg 81%
    21:00 +1°C° 0 mm 3 mps 750 mmHg 81%
    22:00 +1°C° 0 mm 3 mps 750 mmHg 81%
    23:00 +1°C° 0 mm 3 mps 750 mmHg 81%

    27 January, Monday

    Time Temperature Precipitation Wind Pressure Humidity
    00:00 +1°C° 0 mm 3 mps 749 mmHg 83%
    01:00 0°C° 0 mm 3 mps 749 mmHg 84%
    02:00 -1°C° 0 mm 4 mps 749 mmHg 86%
    03:00 0°C° 0 mm 3 mps 749 mmHg 86%
    04:00 0°C° 0 mm 3 mps 748 mmHg 87%
    05:00 0°C° 0 mm 3 mps 748 mmHg 87%
    06:00 0°C° 0 mm 3 mps 748 mmHg 86%
    07:00 0°C° 0 mm 3 mps 748 mmHg 85%
    08:00 0°C° 0 mm 3 mps 747 mmHg 84%
    09:00 0°C° 0 mm 3 mps 747 mmHg 85%
    10:00 -1°C° 0 mm 4 mps 747 mmHg 85%
    11:00 0°C° 0 mm 4 mps 747 mmHg 86%
    12:00 0°C° 0 mm 4 mps 747 mmHg 86%
    13:00 0°C° 0 mm 4 mps 746 mmHg 85%
    14:00 0°C° 0 mm 5 mps 746 mmHg 84%
    15:00 0°C° 0 mm 5 mps 746 mmHg 84%
    16:00 0°C° 0 mm 4 mps 746 mmHg 84%
    17:00 -1°C° 0 mm 4 mps 746 mmHg 84%
    18:00 -1°C° 0 mm 4 mps 746 mmHg 85%
    19:00 0°C° 0 mm 4 mps 746 mmHg 86%
    20:00 0°C° 0 mm 4 mps 746 mmHg 87%
    21:00 0°C° 0 mm 4 mps 746 mmHg 88%
    22:00 0°C° 0 mm 4 mps 746 mmHg 90%
    23:00 0°C° 0 mm 4 mps 746 mmHg 91%
    Show more